Overview Statistics Trail Chart Weather Telemetry Raw packets
 

This is the latest recevied weather packets stored in our database for station/object KB9HUO. If no packets are shown the sender has not sent any weather packets the latest 10 day(s).

<< 2 3 4 5 6 7 8 >>
Time Temp. Humidity Pressure Rain* Wind** Luminosity Snow
1788648228 28.33° C 77% 1013 hPa 0 mm - 15 W/m² -
1788647922 29.44° C 76% 1013 hPa 0 mm - 17 W/m² -
1788647620 30.56° C 73% 1012.9 hPa 0 mm - 17 W/m² -
1788647314 31.67° C 69% 1012.5 hPa 0 mm - 18 W/m² -
1788647013 31.67° C 66% 1012.3 hPa 0 mm - 18 W/m² -
1788646709 32.22° C 65% 1012.2 hPa 0 mm - 19 W/m² -
1788646406 32.78° C 63% 1012.2 hPa 0 mm - 21 W/m² -
1788646101 33.33° C 61% 1012.2 hPa 0 mm - 25 W/m² -
1788645798 33.33° C 59% 1012.3 hPa 0 mm - 27 W/m² -
1788645497 33.89° C 57% 1012 hPa 0 mm - 36 W/m² -
1788645193 33.89° C 59% 1012 hPa 0 mm - 59 W/m² -
1788644889 33.89° C 57% 1012.3 hPa 0 mm - 37 W/m² -
1788644584 33.89° C 57% 1012.1 hPa 0 mm - 78 W/m² -
1788644279 33.89° C 58% 1011.9 hPa 0 mm - 76 W/m² -
1788643975 33.89° C 61% 1012.1 hPa 0 mm - 77 W/m² -
1788643670 33.89° C 60% 1012.4 hPa 0 mm - 78 W/m² -
1788643369 33.89° C 60% 1012.5 hPa 0 mm - 68 W/m² -
1788643069 33.33° C 58% 1012.5 hPa 0 mm - 48 W/m² -
1788642764 33.33° C 59% 1012.5 hPa 0 mm - 64 W/m² -
1788642461 33.33° C 62% 1012.5 hPa 0 mm - 62 W/m² -
1788642160 33.33° C 58% 1012.5 hPa 0 mm - 47 W/m² -
1788641859 33.89° C 59% 1012.5 hPa 0 mm - 56 W/m² -
1788641554 33.89° C 57% 1012.7 hPa 0 mm - 56 W/m² -
1788641254 33.89° C 57% 1012.7 hPa 0 mm - 72 W/m² -
1788640950 33.89° C 58% 1012.5 hPa 0 mm - 60 W/m² -

* Rain latest hour (hover to see other rain measurements)
** Current wind speed in m/s (hover to see current wind gust speed)